sat.trackr.live / text

‹ back to catalog

STARLINK-2151

NORAD 48556 · 2021-041D

PAYLOAD ACTIVE UNKNOWN

§ Identity

Operator
Country
US
Launch date
2021-05-15
Launch site
AFETR
Launch vehicle
Mass (kg)
RCS (m²)

Purposes: comms

External: N2YO · Heavens-Above · Gunter

§ Orbital elements

Epoch: 2026-09-19T17:47:29.153760Z

Period
94.01 min
Inclination
53.1629°
Eccentricity
0.0001609
Mean motion
15.31697652 rev/d
Perigee alt
469.6 km
Apogee alt
471.8 km
Semi-major
6,848.9 km
B*
2.1737e-6
RAAN
319.3676°
Arg perigee
94.0464°
Mean anomaly
266.0722°
Rev number
29,478

§ Raw data

STARLINK-21511 48556U 21041D   26262.74130965 -.00000298  00000+0  21737-5 0  99932 48556  53.1629 319.3676 0001609  94.0464 266.0722 15.31697652294784

JSON: /api/v1/satellites/48556 · /tle

For live sub-satellite position, see the globe view (requires WebGL).

§ Visibility from observer

Set your observer location to see the next 7 days of passes ≥ 10°. The values pass through the URL so the page stays shareable.

No JS? Fill the form by hand. The geolocation button needs JavaScript.